Auburn, AL

2:55 AM CDT on August 31, 2016 (GMT -0500)
Auburn-opelika-pitts

Weather History for KAUO - October, 2012

Change the Weather History Date:

Monday, October 22, 2012

  Actual Average Record
Temperature  
Mean Temperature 67 °F -  
Max Temperature 81 °F - 88 °F (1963)
Min Temperature 52 °F - 30 °F (1989)
Degree Days  
Heating Degree Days 0    
Month to date heating degree days 20  
Since 1 July heating degree days 20  
Cooling Degree Days 2    
Month to date cooling degree days 50  
Year to date cooling degree days 2046  
Growing Degree Days 16 (Base 50)    
Moisture  
Dew Point 48 °F    
Average Humidity 51    
Maximum Humidity 82    
Minimum Humidity 30    
Precipitation  
Precipitation 0.00 in - 1.11 in (2006)
Month to date precipitation 0.49  
Year to date precipitation 22.13  
Sea Level Pressure  
Sea Level Pressure 30.15 in    
Wind  
Wind Speed 4 mph (East)    
Max Wind Speed 8 mph    
Max Gust Speed -    
Visibility 10 miles    
Events      
T = Trace of Precipitation, MM = Missing Value Source: NWS Daily Summary

Daily Weather History Graph

Daily Weather History Graph

Search for Another Location

Airport or City:

Trip Planner

Search our weather history database for the weather conditions in past years. The results will help you decide how hot, cold, wet, or windy it might be!

Date:

Astronomy

Oct. 22, 2012 Rise Set
Actual Time 6:51 AM CDT 6:00 PM CDT
Civil Twilight 6:26 AM CDT 6:25 PM CDT
Nautical Twilight 5:57 AM CDT 6:54 PM CDT
Astronomical Twilight 5:29 AM CDT 7:22 PM CDT
Moon 1:47 PM CDT (10/22) 12:00 AM CDT (10/22)
Length of Visible Light 11h 58m
Length of Day
11h 08m
First Quarter, 56% of the Moon is Illuminated
Oct 22
First Quarter
Oct 29
Full
Nov 6
Last Quarter
Nov 13
New
Nov 20
First Quarter

Hourly Weather History & Observations

Time (CDT) Temp. Dew Point Humidity Pressure Visibility Wind Dir Wind Speed Gust Speed Precip Events Conditions
12:15 AM 60.8 °F 46.4 °F 59% 30.13 in 10.0 mi East 5.8 mph - N/A   Clear
12:55 AM - - N/A% 30.12 in 10.0 mi East 5.8 mph - N/A   Clear
1:15 AM - - N/A% 30.12 in 10.0 mi East 6.9 mph - N/A   Clear
1:35 AM - - N/A% 30.12 in 10.0 mi East 6.9 mph - N/A   Clear
1:55 AM - - N/A% 30.12 in 10.0 mi East 6.9 mph - N/A   Clear
2:15 AM - - N/A% 30.12 in 10.0 mi East 4.6 mph - N/A   Clear
2:35 AM - - N/A% 30.12 in 10.0 mi East 5.8 mph - N/A   Clear
2:55 AM - - N/A% 30.12 in 10.0 mi ENE 3.5 mph - N/A   Clear
3:15 AM - - N/A% 30.12 in 10.0 mi NE 4.6 mph - N/A   Clear
3:55 AM - - N/A% 30.12 in 10.0 mi East 5.8 mph - N/A   Clear
4:15 AM - - N/A% 30.13 in 10.0 mi East 5.8 mph - N/A   Clear
4:35 AM - - N/A% 30.14 in 10.0 mi ENE 4.6 mph - N/A   Clear
4:55 AM 53.6 °F 44.6 °F 72% 30.14 in 10.0 mi ENE 4.6 mph - N/A   Clear
5:15 AM 53.6 °F 46.4 °F 77% 30.16 in 10.0 mi NE 5.8 mph - N/A   Clear
5:35 AM 53.6 °F 46.4 °F 77% 30.16 in 10.0 mi ENE 4.6 mph - N/A   Clear
5:55 AM 53.6 °F 44.6 °F 72% 30.16 in 10.0 mi ENE 5.8 mph - N/A   Clear
6:15 AM 53.6 °F 44.6 °F 72% 30.17 in 10.0 mi ENE 3.5 mph - N/A   Clear
6:35 AM 51.8 °F 44.6 °F 76% 30.18 in 10.0 mi ENE 3.5 mph - N/A   Clear
6:55 AM 51.8 °F 46.4 °F 82% 30.18 in 10.0 mi ENE 5.8 mph - N/A   Clear
7:15 AM 53.6 °F 46.4 °F 77% 30.19 in 10.0 mi ENE 5.8 mph - N/A   Clear
7:35 AM 53.6 °F 46.4 °F 77% 30.19 in 10.0 mi East 4.6 mph - N/A   Clear
7:55 AM 57.2 °F 48.2 °F 72% 30.19 in 10.0 mi ENE 3.5 mph - N/A   Clear
8:15 AM 59.0 °F 48.2 °F 67% 30.20 in 10.0 mi East 4.6 mph - N/A   Clear
8:35 AM 62.6 °F 48.2 °F 59% 30.20 in 10.0 mi East 5.8 mph - N/A   Clear
8:55 AM 64.4 °F 50.0 °F 59% 30.20 in 10.0 mi ESE 3.5 mph - N/A   Clear
9:15 AM 66.2 °F 50.0 °F 56% 30.20 in 10.0 mi SE 6.9 mph - N/A   Clear
9:35 AM 68.0 °F 50.0 °F 52% 30.21 in 10.0 mi SSE 5.8 mph - N/A   Clear
9:55 AM 69.8 °F 50.0 °F 49% 30.21 in 10.0 mi SSE 5.8 mph - N/A   Clear
10:15 AM 69.8 °F 50.0 °F 49% 30.21 in 10.0 mi ESE 5.8 mph - N/A   Clear
10:35 AM 71.6 °F 50.0 °F 46% 30.21 in 10.0 mi SE 5.8 mph - N/A   Clear
10:55 AM 73.4 °F 48.2 °F 41% 30.21 in 10.0 mi ESE 5.8 mph - N/A   Clear
11:15 AM 73.4 °F 48.2 °F 41% 30.20 in 10.0 mi SSE 6.9 mph - N/A   Clear
11:35 AM 73.4 °F 48.2 °F 41% 30.20 in 10.0 mi ESE 6.9 mph - N/A   Clear
11:55 AM 75.2 °F 48.2 °F 38% 30.19 in 10.0 mi SSE 6.9 mph - N/A   Clear
12:15 PM 75.2 °F 48.2 °F 38% 30.18 in 10.0 mi SSE 8.1 mph - N/A   Clear
12:35 PM 77.0 °F 48.2 °F 36% 30.17 in 10.0 mi ESE 8.1 mph - N/A   Clear
12:55 PM 77.0 °F 48.2 °F 36% 30.17 in 10.0 mi East 8.1 mph - N/A   Clear
1:15 PM 77.0 °F 48.2 °F 36% 30.16 in 10.0 mi Calm Calm - N/A   Clear
1:35 PM 77.0 °F 48.2 °F 36% 30.15 in 10.0 mi Calm Calm - N/A   Clear
1:55 PM 78.8 °F 48.2 °F 34% 30.14 in 10.0 mi Calm Calm - N/A   Clear
2:15 PM 78.8 °F 48.2 °F 34% 30.13 in 10.0 mi Calm Calm - N/A   Clear
2:35 PM 78.8 °F 48.2 °F 34% 30.11 in 10.0 mi Calm Calm - N/A   Clear
2:55 PM 78.8 °F 48.2 °F 34% 30.11 in 10.0 mi SSE 3.5 mph - N/A   Clear
3:15 PM 80.6 °F 46.4 °F 30% 30.11 in 10.0 mi NNE 4.6 mph - N/A   Clear
3:35 PM 78.8 °F 48.2 °F 34% 30.10 in 10.0 mi Calm Calm - N/A   Clear
3:55 PM 78.8 °F 48.2 °F 34% 30.11 in 10.0 mi Calm Calm - N/A   Clear
4:15 PM 78.8 °F 46.4 °F 32% 30.11 in 10.0 mi SE 5.8 mph - N/A   Clear
4:35 PM 78.8 °F 46.4 °F 32% 30.11 in 10.0 mi SE 4.6 mph - N/A   Clear
4:55 PM 78.8 °F 46.4 °F 32% 30.10 in 10.0 mi SE 3.5 mph - N/A   Clear
5:15 PM 77.0 °F 46.4 °F 34% 30.11 in 10.0 mi Calm Calm - N/A   Clear
5:35 PM 75.2 °F 46.4 °F 36% 30.11 in 10.0 mi Calm Calm - N/A   Clear
5:55 PM 75.2 °F 46.4 °F 36% 30.11 in 10.0 mi East 3.5 mph - N/A   Clear
6:15 PM 71.6 °F 48.2 °F 43% 30.12 in 10.0 mi Calm Calm - N/A   Clear
6:35 PM 66.2 °F 48.2 °F 52% 30.13 in 9.0 mi Calm Calm - N/A   Clear
6:55 PM 66.2 °F 48.2 °F 52% 30.13 in 5.0 mi Calm Calm - N/A   Clear
7:15 PM 68.0 °F 48.2 °F 49% 30.14 in 10.0 mi ESE 4.6 mph - N/A   Clear
7:35 PM 66.2 °F 48.2 °F 52% 30.14 in 10.0 mi Calm Calm - N/A   Clear
7:55 PM 64.4 °F 48.2 °F 56% 30.14 in 10.0 mi East 3.5 mph - N/A   Clear
8:15 PM 66.2 °F 48.2 °F 52% 30.14 in 10.0 mi East 4.6 mph - N/A   Clear
8:55 PM 64.4 °F 48.2 °F 56% 30.15 in 10.0 mi ESE 3.5 mph - N/A   Clear
9:15 PM 62.6 °F 48.2 °F 59% 30.15 in 10.0 mi ESE 3.5 mph - N/A   Clear
9:35 PM 62.6 °F 48.2 °F 59% 30.16 in 10.0 mi ESE 3.5 mph - N/A   Clear
9:55 PM 62.6 °F 48.2 °F 59% 30.16 in 10.0 mi East 3.5 mph - N/A   Clear
10:15 PM 60.8 °F 48.2 °F 63% 30.15 in 10.0 mi East 3.5 mph - N/A   Clear
10:35 PM 60.8 °F 48.2 °F 63% 30.15 in 10.0 mi East 4.6 mph - N/A   Clear
10:55 PM 62.6 °F 48.2 °F 59% 30.14 in 10.0 mi East 5.8 mph - N/A   Clear
11:15 PM 62.6 °F 48.2 °F 59% 30.14 in 10.0 mi East 5.8 mph - N/A   Clear
11:35 PM 62.6 °F 48.2 °F 59% 30.14 in 10.0 mi East 5.8 mph - N/A   Clear
11:55 PM 62.6 °F 48.2 °F 59% 30.14 in 10.0 mi East 5.8 mph - N/A   Clear